| time (UTC) | temp C | wind direction | speed KPH | gust KPH | rain 1hr cm | rain 24hr cm | rain mn cm | humidity % | barometer mb |
| 20260504231537 | 18 | 248 | 3.2 | 14.5 | 0.00 | 0.00 | 0.00 | 39 | 1005.5 |
| 20260504230036 | 19 | 250 | 6.4 | 16.1 | 0.00 | 0.00 | 0.00 | 37 | 1005.2 |
| 20260504224536 | 19 | 255 | 6.4 | 14.5 | 0.00 | 0.00 | 0.00 | 39 | 1004.9 |
| 20260504223052 | 19 | 247 | 8.0 | 16.1 | 0.00 | 0.00 | 0.00 | 38 | 1004.9 |
| 20260504221534 | 19 | 252 | 9.7 | 16.1 | 0.00 | 0.00 | 0.00 | 35 | 1004.8 |
| 20260504220031 | 20 | 241 | 6.4 | 9.7 | 0.00 | 0.00 | 0.00 | 37 | 1005.0 |
| 20260504214531 | 20 | 322 | 1.6 | 9.7 | 0.00 | 0.00 | 0.00 | 37 | 1004.9 |
| 20260504213042 | 20 | 245 | 4.8 | 19.3 | 0.00 | 0.00 | 0.00 | 35 | 1005.0 |
| 20260504211533 | 19 | 240 | 4.8 | 14.5 | 0.00 | 0.00 | 0.00 | 37 | 1004.9 |
| 20260504210027 | 20 | 263 | 6.4 | 14.5 | 0.00 | 0.00 | 0.00 | 37 | 1004.8 |
| 20260504204536 | 20 | 255 | 12.9 | 24.1 | 0.00 | 0.00 | 0.00 | 35 | 1004.6 |
| 20260504203025 | 19 | 236 | 9.7 | 20.9 | 0.00 | 0.00 | 0.00 | 37 | 1004.6 |
| 20260504201521 | 19 | 248 | 9.7 | 19.3 | 0.00 | 0.00 | 0.00 | 38 | 1004.7 |
| 20260504200023 | 19 | 241 | 8.0 | 16.1 | 0.00 | 0.00 | 0.00 | 37 | 1004.8 |
| 20260504194519 | 19 | 251 | 12.9 | 24.1 | 0.00 | 0.00 | 0.00 | 37 | 1004.9 |
| 20260504193018 | 19 | 251 | 6.4 | 17.7 | 0.00 | 0.00 | 0.00 | 37 | 1004.9 |
| 20260504191515 | 19 | 165 | 8.0 | 17.7 | 0.00 | 0.00 | 0.00 | 36 | 1005.1 |
| 20260504190015 | 19 | 240 | 9.7 | 30.6 | 0.00 | 0.00 | 0.00 | 37 | 1005.2 |
| 20260504184510 | 18 | 247 | 6.4 | 20.9 | 0.00 | 0.00 | 0.00 | 36 | 1005.2 |
| 20260504183010 | 18 | 264 | 9.7 | 30.6 | 0.00 | 0.00 | 0.00 | 36 | 1005.2 |
| 20260504181512 | 18 | 244 | 4.8 | 20.9 | 0.00 | 0.00 | 0.00 | 37 | 1005.1 |
| 20260504180008 | 18 | 264 | 9.7 | 25.7 | 0.00 | 0.00 | 0.00 | 36 | 1005.2 |
| 20260504174505 | 18 | 262 | 11.3 | 22.5 | 0.00 | 0.00 | 0.00 | 36 | 1005.4 |
| 20260504173003 | 18 | 258 | 17.7 | 30.6 | 0.00 | 0.00 | 0.00 | 35 | 1005.6 |
| 20260504171503 | 18 | 251 | 14.5 | 30.6 | 0.00 | 0.00 | 0.00 | 37 | 1005.6 |
| 20260504081529 | 5 | 257 | 0.0 | 0.0 | 0.00 | 0.03 | 0.00 | 73 | 1008.6 |
| 20260504050004 | 1 | 39 | 0.0 | 0.0 | 0.00 | 0.03 | 0.00 | 86 | 1008.6 |
| 20260504044505 | 2 | 39 | 0.0 | 0.0 | 0.00 | 0.03 | 0.00 | 83 | 1008.6 |
| 20260504043100 | 2 | 39 | 0.0 | 0.0 | 0.00 | 0.03 | 0.00 | 83 | 1008.6 |
| 20260504041557 | 2 | 39 | 0.0 | 0.0 | 0.00 | 0.03 | 0.00 | 80 | 1008.6 |
| 20260504040105 | 2 | 39 | 0.0 | 0.0 | 0.00 | 0.03 | 0.00 | 77 | 1008.5 |
| 20260504034611 | 3 | 39 | 0.0 | 1.6 | 0.00 | 0.03 | 0.03 | 78 | 1008.4 |
| 20260504033050 | 3 | 39 | 0.0 | 1.6 | 0.00 | 0.03 | 0.03 | 79 | 1008.4 |
| 20260504031547 | 3 | 11 | 0.0 | 1.6 | 0.00 | 0.03 | 0.03 | 77 | 1008.1 |
| 20260504024549 | 3 | 271 | 0.0 | 3.2 | 0.00 | 0.03 | 0.03 | 76 | 1008.1 |
| 20260504023042 | 4 | 346 | 0.0 | 0.0 | 0.00 | 0.03 | 0.03 | 74 | 1008.1 |
| 20260504021544 | 5 | 268 | 0.0 | 8.0 | 0.00 | 0.03 | 0.03 | 70 | 1008.1 |
| 20260504020040 | 5 | 270 | 0.0 | 6.4 | 0.00 | 0.03 | 0.03 | 67 | 1008.0 |
| 20260504014539 | 6 | 255 | 0.0 | 4.8 | 0.00 | 0.05 | 0.03 | 66 | 1008.1 |
| 20260504013048 | 5 | 258 | 0.0 | 0.0 | 0.00 | 0.05 | 0.03 | 63 | 1008.0 |
| 20260504011541 | 6 | 258 | 0.0 | 1.6 | 0.00 | 0.05 | 0.03 | 60 | 1007.9 |
| 20260504010040 | 7 | 257 | 0.0 | 4.8 | 0.00 | 0.05 | 0.03 | 57 | 1007.8 |
| 20260504004538 | 7 | 250 | 3.2 | 6.4 | 0.00 | 0.23 | 0.03 | 57 | 1007.6 |
| 20260504003038 | 7 | 248 | 1.6 | 8.0 | 0.00 | 0.23 | 0.03 | 59 | 1007.2 |
| 20260504001543 | 7 | 252 | 1.6 | 4.8 | 0.00 | 0.23 | 0.03 | 57 | 1007.2 |
| 20260504000037 | 8 | 251 | 1.6 | 6.4 | 0.00 | 0.23 | 0.03 | 57 | 1006.9 |
| 20260503234536 | 8 | 248 | 1.6 | 9.7 | 0.00 | 0.33 | 0.03 | 54 | 1006.7 |
| 20260503233039 | 8 | 278 | 0.0 | 12.9 | 0.00 | 0.33 | 0.03 | 51 | 1006.6 |